Location: Gwatt
(46.7204°N, 7.6223°E)
Time: 00:53:48
(UTC+00:00)

Transit 2A - Pass Details

Date: 23 January 2021
Orbit: 601 x 958 km, 66.7° (Epoch: 07 March)

Event Time Altitude Azimuth Distance (km) Brightness Sun altitude
Rises 06:28:41 0° 282° (WNW) 3,362 - -6.3°
Exits shadow 06:31:22 - 299° (WNW) 2,648 8.1 -5.8°
Reaches altitude 10° 06:33:02 10° 313° (NW) 2,333 7.9 -5.6°
Maximum altitude 06:34:56 12° 335° (NNW) 2,166 7.9 -5.3°
Drops below altitude 10° 06:36:48 10° 356° (N) 2,248 8.2 -5.0°
Sets 06:40:47 0° 29° (NNE) 3,079 9.2 -4.3°
